Lid_Strength_Index
2 2 1 1 1 1 1 1 1 1 1 0 0 0 0 0 0 -0 -0 -0 -0 0 0 0 0 0 1 1 1 1 1 1
2 2 2 1 1 1 2 2 1 1 1 2 2 2 1 1 0 -0 -0 -0 -0 0 0 0 0 1 1 1 2 3 3 3
3 3 2 2 2 1 2 2 1 1 1 1 1 1 1 1 0 0 -0 -0 -0 0 1 1 3 3 3 2 3 4 4 4
3 3 3 2 2 2 2 2 1 1 1 2 1 1 1 1 1 1 0 1 2 3 4 4 4 4 4 4 4 5 6 5
3 3 3 3 2 2 2 2 2 1 1 2 2 3 4 4 4 4 3 4 5 5 5 5 4 4 5 5 5 5 6 7
3 3 3 2 2 2 2 2 2 2 2 2 3 5 5 6 6 6 6 6 6 6 6 6 5 4 5 5 5 6 6 7
3 3 2 3 2 2 2 2 2 3 3 4 6 7 7 8 7 7 8 6 6 7 6 5 6 5 5 5 6 6 6 7
4 3 3 3 3 3 3 3 4 4 5 6 7 7 8 8 8 8 7 7 8 6 6 6 6 6 6 6 6 7 7 7
4 3 3 3 3 3 3 3 4 5 6 7 7 7 7 8 7 7 7 7 7 6 7 6 6 6 6 6 6 7 7 8
4 3 3 3 3 3 3 4 3 5 6 6 8 7 8 7 7 7 7 6 7 7 7 7 7 7 7 8 9 9 9 10
4 3 3 3 3 3 2 2 3 5 6 7 7 6 6 6 6 6 7 6 7 7 7 8 8 8 8 9 10 10 10 10
4 4 3 3 3 3 3 2 3 4 5 6 6 6 6 6 6 6 7 6 7 8 8 8 9 9 9 10 11 11 12 12
4 4 4 4 3 4 3 4 4 5 5 5 6 6 7 6 6 7 7 7 7 8 9 9 10 10 11 12 12 12 13 12
4 4 4 4 4 4 4 4 5 5 5 5 5 6 6 6 7 7 7 8 8 9 10 10 11 12 12 12 12 12 12 12
4 4 4 4 4 4 5 5 5 5 5 5 6 6 6 7 7 8 8 9 10 10 11 11 12 12 12 13 13 13 13 13
4 5 4 4 4 4 5 5 5 5 6 6 6 6 7 7 8 9 9 10 11 11 12 12 13 13 13 13 13 13 13 13
5 4 4 4 4 4 5 5 6 6 6 6 6 7 8 9 9 10 10 11 12 12 13 13 13 13 14 13 13 14 14 14
4 4 4 4 4 4 5 6 6 6 7 8 8 8 12 10 11 11 12 13 13 14 14 14 14 14 13 13 13 14 14 14
4 4 4 3 3 4 5 6 7 7 8 9 10 12 14 15 15 15 15 15 15 15 15 15 14 15 13 13 14 14 13 13